Regional Weather Roundup
Issued by NWS

Home | Current Version | Previous Version | Graphics & Text | Print | Product List | Glossary On
Versions: 1 2 3 4 5 6 7 8 9 10 11 12 13 14 15 16 17 18 19 20 21 22 23 24 25 26 27 28 29 30 31 32 33 34 35 36 37 38 39 40 41 42 43 44 45 46 47 48 49 50
000
ASUS43 KDMX 240706
RWRIA

WEATHER ROUNDUP FOR IOWA
NATIONAL WEATHER SERVICE DES MOINES IA
100 AM CST SAT FEB 24 2018

NOTE: "FAIR" INDICATES FEW OR NO CLOUDS BELOW 12,000 FEET WITH NO
SIGNIFICANT WEATHER AND/OR OBSTRUCTIONS TO VISIBILITY.

* - THESE STATIONS ARE NOT NWS STATIONS...THUS NOT UNDER NWS
QUALITY CONTROL.  THEY ALSO DO NOT REPORT WEATHER SUCH
AS PRECIPITATION OR FOG.

IAZ001>003-012>014-020>022-031>034-043>046-240800-
   NORTHWEST IOWA

CITY           SKY/WX    TMP DP  RH WIND       PRES   REMARKS
CARROLL *      CLOUDY    23  21  93 E6        30.23F WCI  16
CHEROKEE *     CLOUDY    19  19 100 E6        30.23F FOG     WCI  11
DENISON *      CLOUDY    21  21 100 E9G15     30.24F WCI  11
LE MARS *      FOG       18  16  93 NE7       30.22F VSB 1/4 WCI   8
ORANGE CITY *  FOG       18  16  93 E3        30.21F VSB 1/4
SHELDON *      FOG       14  14 100 NE7       30.20F VSB<1/4 WCI   4
SIOUX CITY     CLOUDY    18  18 100 E7        30.23F FOG     WCI   9
SPENCER        HAZE      19  14  81 NE7       30.23F VSB 1/4 WCI  10
STORM LAKE *   FOG       19  19 100 NE10      30.21F VSB 1/2 WCI   8
$$

IAZ055>058-069>071-079>083-090>094-240800-
   SOUTHWEST IOWA

CITY           SKY/WX    TMP DP  RH WIND       PRES   REMARKS
ATLANTIC *     CLOUDY    21  21 100 NE12      30.22F WCI   9
AUDUBON *      CLOUDY    21  19  93 E10       30.22F FOG     WCI  10
CLARINDA *     CLOUDY    28  28 100 NE9       30.21F WCI  20
COUNCIL BLFS * CLOUDY    21  21 100 NE10      30.21F WCI  10
CRESTON *      CLOUDY    25  23  93 NE16      30.20F WCI  12
HARLAN  *      CLOUDY    21  21 100 E9G15     30.26F WCI  11
LAMONI         CLOUDY    25  23  92 NE16      30.18F FOG     WCI  12
RED OAK *      CLOUDY    27  25  93 NE12G17   30.21F WCI  16
SHENANDOAH *   CLOUDY    28  25  86 NE14      30.20F WCI  17
$$

IAZ047>049-059>061-072>074-084-240800-
   CENTRAL IOWA

CITY           SKY/WX    TMP DP  RH WIND       PRES   REMARKS
AMES           CLOUDY    22  19  89 CALM      30.26F FOG
ANKENY *       CLOUDY    25  21  86 NE7       30.27F WCI  17
BOONE *        CLEAR     21  19  93 MISG      30.24F
CHARITON *     CLOUDY    25  25 100 N10       30.21F WCI  15
DES MOINES     CLOUDY    25  20  81 NE12      30.24F WCI  14
GRINNELL*      CLOUDY    25  23  92 N5        30.27S WCI  19
KNOXVILLE *    PTCLDY    25  23  93 NE12      30.22F WCI  14
MARSHALLTOWN   CLOUDY    24  21  88 N6        30.26F WCI  17
NEWTON *       CLOUDY    25  23  93 NE6       30.26F WCI  18
PELLA *        CLEAR     26  23  89 N12       30.25F WCI  15
PERRY *        MOCLDY    24  22  95 NE5       30.25F WCI  18
$$

IAZ004>006-015-016-023>025-035-036-240800-
   NORTH CENTRAL IOWA

CITY           SKY/WX    TMP DP  RH WIND       PRES   REMARKS
ALGONA *       FOG       10 N/A N/A N6        30.24S VSB<1/4 WCI   1
CLARION *      FOG       10  10 100 CALM      30.26F VSB<1/4
ESTHERVILLE    FOG       12  11  95 N6        30.23F VSB 1/4 WCI   3
FORT DODGE *   FOG        9   7  92 E5        30.25F VSB 1/4 WCI   1
MASON CITY     FOG       15  13  91 CALM      30.26F VSB 1/4
FOREST CITY *  FOG      N/A N/A N/A CALM      30.25F VSB 1/4
WEBSTER CITY * FOG       12   9  85 CALM      30.24F VSB<1/4
IOWA FALLS *   FAIR      22  20  93 NE3       30.27F
$$

IAZ007>011-017>019-026>030-037>042-050>054-066-240800-
   NORTHEAST IOWA

CITY           SKY/WX    TMP DP  RH WIND       PRES   REMARKS
CEDAR RAPIDS   FAIR      24  20  84 N8        30.25F FOG     WCI  15
CHARLES CITY * FAIR      18  18 100 NE5       30.27F WCI  11
CLINTON *      FAIR      26  25  96 N9        30.26F WCI  17
DECORAH *      FAIR      19  19 100 N6        30.26F WCI  11
DUBUQUE        FAIR      24  20  84 N8        30.25F FOG     WCI  15
MONTICELLO *   FAIR      27  23  86 CALM      30.27F
OELWEIN *      FAIR      23  23 100 NE3       30.27S
WATERLOO       FAIR      21  20  96 N3        30.27F
$$

IAZ064-065-067-068-078-240800-
   EAST CENTRAL IOWA

CITY           SKY/WX    TMP DP  RH WIND       PRES   REMARKS
DAVENPORT      FAIR      29  25  85 N10       30.26F WCI  20
IOWA CITY      FAIR      28  23  81 N9        30.27F WCI  19
MT. PLEASANT * CLOUDY    30  28  93 N14       30.21F WCI  20
MUSCATINE *    FAIR      28  27  93 N9        30.25F WCI  20
QUAD CITIES    FAIR      30  26  85 N6        30.23F WCI  24
$$

IAZ062-063-075>077-085>089-095>099-240800-
   SOUTHEAST IOWA

CITY           SKY/WX    TMP DP  RH WIND       PRES   REMARKS
BURLINGTON     CLOUDY    31  26  82 NE15      30.20F WCI  20
FAIRFIELD *    CLOUDY    27  25  93 N10G16    30.22F WCI  17
FORT MADISON * CLOUDY    30  28  93 NE6       30.22F WCI  24
KEOKUK *       MOCLDY    32  28  86 NE7       30.20F WCI  26
OSKALOOSA *    FAIR      26  25  94 N12       30.23F WCI  16
OTTUMWA        MOCLDY    27  23  85 N14       30.22F WCI  16
WASHINGTON *   CLOUDY    27  28 100 N12       30.25F WCI  16
$$

ABBREVIATIONS USED IN REMARKS
   TC - TEMPERATURES IN CELSIUS
  WCI - WIND CHILL INDEX
   HX - HEAT INDEX
  VSB - VISIBILITY
$$





USA.gov is the U.S. government's official web portal to all federal, state and local government web resources and services.